WetterOnline ( https://www.wetteronline.de )

Wetter aktuell Obersöchering

Aktuelles Wetter: Hohenpeißenberg (986m)

6-stündlich | Neueste Meldungen
Ortszeit Temperatur Wetter
Do, 01.10. 8:00 10.1° C fast wolkenlos
Do, 01.10. 2:00 10.1° C wolkenlos
Mi, 30.09. 20:00 10.7° C wolkenlos
Mi, 30.09. 14:00 13.0° C leicht bewölkt
Mi, 30.09. 8:00 7.7° C bedeckt
Mi, 30.09. 2:00 7.5° C bedeckt
Di, 29.09. 20:00 7.5° C wolkig
Di, 29.09. 14:00 7.8° C bedeckt
Ortszeit Temperatur Wetter
Do, 01.10. 10:00 13.7° C leicht bewölkt
Do, 01.10. 9:50 13.7° C wolkig
Do, 01.10. 9:40 13.1° C wolkig
Do, 01.10. 9:30 12.4° C leicht bewölkt
Do, 01.10. 9:20 12.4° C leicht bewölkt
Do, 01.10. 9:10 11.9° C fast wolkenlos
Do, 01.10. 9:00 11.7° C fast wolkenlos
Do, 01.10. 8:30 11.8° C wolkenlos
Do, 01.10. 8:00 10.1° C fast wolkenlos
Do, 01.10. 7:30 9.7° C wolkenlos
Do, 01.10. 7:00 9.7° C wolkenlos
Do, 01.10. 6:30 10.0° C wolkenlos
Ortszeit Relative Feuchte Sichtweite
Do, 01.10. 8:00 100% 16 km
Do, 01.10. 2:00 95% 55 km
Mi, 30.09. 20:00 94% 35 km
Mi, 30.09. 14:00 75% 27 km
Mi, 30.09. 8:00 91% 40 km
Mi, 30.09. 2:00 86% 60 km
Di, 29.09. 20:00 96% 30 km
Di, 29.09. 14:00 97% 55 km
Ortszeit Relative Feuchte Sichtweite
Do, 01.10. 10:00 79% 50 km
Do, 01.10. 9:50 79% -
Do, 01.10. 9:40 81% -
Do, 01.10. 9:30 81% 40 km
Do, 01.10. 9:20 81% -
Do, 01.10. 9:10 82% -
Do, 01.10. 9:00 85% 50 km
Do, 01.10. 8:30 89% 21 km
Do, 01.10. 8:00 100% 16 km
Do, 01.10. 7:30 97% 30 km
Do, 01.10. 7:00 97% 30 km
Do, 01.10. 6:30 99% 22 km
Ortszeit Niederschlagsmenge Niederschlagsart
Do, 01.10. 8:00 0.0 l/m2 in 12 Std. -
Do, 01.10. 2:00 0.0 l/m2 in 6 Std. -
Mi, 30.09. 20:00 0.0 l/m2 in 3 Std. -
Mi, 30.09. 14:00 0.0 l/m2 in 3 Std. -
Mi, 30.09. 8:00 0.1 l/m2 in 12 Std. Regen
Mi, 30.09. 2:00 0.0 l/m2 in 6 Std. -
Di, 29.09. 20:00 1 l/m2 in 12 Std. Regen
Di, 29.09. 14:00 1 l/m2 in 6 Std. Regen
Ortszeit Niederschlagsmenge Niederschlagsart
Do, 01.10. 10:00 0.0 l/m2 in 1 Std. -
Do, 01.10. 9:50 keine Meldung -
Do, 01.10. 9:40 keine Meldung -
Do, 01.10. 9:30 0.0 l/m2 in 1 Std. -
Do, 01.10. 9:20 keine Meldung -
Do, 01.10. 9:10 keine Meldung -
Do, 01.10. 9:00 0.1 l/m2 in 1 Std. -
Do, 01.10. 8:30 0.1 l/m2 in 1 Std. -
Do, 01.10. 8:00 0.0 l/m2 in 1 Std. -
Do, 01.10. 7:30 0.0 l/m2 in 1 Std. -
Do, 01.10. 7:00 0.0 l/m2 in 1 Std. -
Do, 01.10. 6:30 0.0 l/m2 in 1 Std. -
Ortszeit Stärke Spitze Richtung
km/h Bft. km/h Grad Sektor
Do, 01.10. 8:00 4 1 22 220° SW
Do, 01.10. 2:00 9 2 26 140° SO
Mi, 30.09. 20:00 14 3 25 60° NO
Mi, 30.09. 14:00 11 2 14 60° NO
Mi, 30.09. 8:00 4 1 14 160° S
Mi, 30.09. 2:00 11 2 40 250° W
Di, 29.09. 20:00 19 3 44 250° W
Di, 29.09. 14:00 20 4 54 250° W
Ortszeit Stärke Spitze Richtung
km/h Bft. km/h Grad Sektor
Do, 01.10. 10:00 6 1 9 170° S
Do, 01.10. 9:50 6 1 - 170° S
Do, 01.10. 9:40 4 1 - 140° SO
Do, 01.10. 9:30 7 2 9 140° SO
Do, 01.10. 9:20 7 2 - 140° SO
Do, 01.10. 9:10 7 2 - 150° SO
Do, 01.10. 9:00 7 2 11 150° SO
Do, 01.10. 8:30 0 0 4 - -
Do, 01.10. 8:00 4 1 4 220° SW
Do, 01.10. 7:30 4 1 4 240° SW
Do, 01.10. 7:00 4 1 11 250° W
Do, 01.10. 6:30 6 1 11 250° W
Ortszeit Untergrenze Bedeckung Gattung
total tief tief mittel hoch
Do, 01.10. 8:00 10500 m 1/8 0/8 - - -
Do, 01.10. 2:00 - 0/8 0/8 - - -
Mi, 30.09. 20:00 - 0/8 0/8 - - -
Mi, 30.09. 14:00 510 m 7/8 1/8 - - -
Mi, 30.09. 8:00 1500 m 8/8 8/8 - - -
Mi, 30.09. 2:00 1500 m 8/8 8/8 - - -
Di, 29.09. 20:00 1500 m 6/8 6/8 - - -
Di, 29.09. 14:00 210 m 8/8 8/8 - - -
Ortszeit Bedeckungsgrad in Achtel und Wolkenuntergrenze
Do, 01.10. 10:00 7(8400m)
Do, 01.10. 9:50 7(8400m)
Do, 01.10. 9:40 6(8400m) 6(9000m) 7(10500m)
Do, 01.10. 9:30 4(10500m) 6(10500m)
Do, 01.10. 9:20 4(10500m)
Do, 01.10. 9:10 2(9000m)
Do, 01.10. 9:00 1(10500m)
Do, 01.10. 8:30 3(10500m)
Do, 01.10. 8:00 1(10500m)
Do, 01.10. 7:30 keine Wolken
Do, 01.10. 7:00 keine Wolken
Do, 01.10. 6:30 keine Wolken
Ortszeit Stationsdruck (hPa) Tendenz (hPa in 3 Std.)
Do, 01.10. 8:00 897 - 1,0
Do, 01.10. 2:00 899 - 1,3
Mi, 30.09. 20:00 902 - 0,7
Mi, 30.09. 14:00 904 - 1,3
Mi, 30.09. 8:00 905 - 0,4
Mi, 30.09. 2:00 906 - 1,0
Di, 29.09. 20:00 907 + 0,8
Di, 29.09. 14:00 906 + 0,9
Ortszeit Stationsdruck (hPa) Tendenz (hPa in 3 Std.)
Do, 01.10. 10:00 896 - 0,8
Do, 01.10. 9:50 896 keine Meldung
Do, 01.10. 9:40 896 keine Meldung
Do, 01.10. 9:30 896 - 0,8
Do, 01.10. 9:20 896 keine Meldung
Do, 01.10. 9:10 897 keine Meldung
Do, 01.10. 9:00 897 - 0,8
Do, 01.10. 8:30 897 - 1,0
Do, 01.10. 8:00 897 - 1,0
Do, 01.10. 7:30 897 - 1,3
Do, 01.10. 7:00 897 - 1,3
Do, 01.10. 6:30 897 - 1,4
Ortszeit Schneehöhe (cm)
Do, 01.10. 8:00 0
Do, 01.10. 2:00 0
Mi, 30.09. 20:00 0
Mi, 30.09. 14:00 0
Mi, 30.09. 8:00 0
Mi, 30.09. 2:00 0
Di, 29.09. 20:00 0
Di, 29.09. 14:00 0
Ortszeit Schneehöhe (cm)
Do, 01.10. 10:00 0
Do, 01.10. 9:50 0
Do, 01.10. 9:40 0
Do, 01.10. 9:30 0
Do, 01.10. 9:20 0
Do, 01.10. 9:10 0
Do, 01.10. 9:00 0
Do, 01.10. 8:30 0
Do, 01.10. 8:00 0
Do, 01.10. 7:30 0
Do, 01.10. 7:00 0
Do, 01.10. 6:30 0
Link zu dieser Seite / Seite empfehlen

Das Wetter in ...